STARLINK-11736 [DTC]

Last updated on Thu Jul 03 2025 00:02:06 GMT+0000 (Coordinated Universal Time)

1 64317U 25124A 25183.48249250 .00336995 00000+0 18550-2 0 9993 2 64317 43.0005 98.2592 0001320 293.0390 67.0341 15.77961610 3470
UTC large
Height (km)
Speed (km/s)
/
Latitude / Longitude
Inclination (degrees)
Orbital Period (minutes)
Azimuth
Elevation
Range (km)
Doppler Factor

Next 0 passes for location: London (51.5072 / 0.1276)

Sorry there are no passes over London.